Location: Newark
(54.1978°N, 18.3264°E)
Time: 05:10:23
(UTC+00:00)

OTV 5 (USA 277) - Pass Details

Date: 02 September 2019
Orbit: 295 x 339 km, 54.5° (Epoch: 08 September)

Event Time Altitude Azimuth Distance (km) Brightness Sun altitude
Rises 20:06:38 0° 282° (WNW) 1,999 ? -19.5°
Reaches altitude 10° 20:08:35 10° 279° (W) 1,170 ? -19.7°
Enters shadow 20:10:01 28° 270° (W) 599 ? -19.9°
